Location: Litvinovka
(48.6667°N, 34.3500°E)
Time: 01:43:08
(UTC+00:00)

USA 238 DEB - Pass Details

Date: 18 September 2020
Orbit: 1006 x 1206 km, 63.4° (Epoch: 15 October)

Event Time Altitude Azimuth Distance (km) Brightness Sun altitude
Rises 17:44:28 0° 318° (NW) 3,936 7.9 -19.3°
Reaches altitude 10° 17:47:06 10° 318° (NW) 3,003 7.1 -19.7°
Maximum altitude 17:54:19 84° 232° (SW) 1,171 3.8 -20.7°
Enters shadow 17:58:12 32° 146° (SE) 1,913 4.5 -21.3°
